Date,TemperatureHighF,TemperatureAvgF,TemperatureLowF,DewpointHighF,DewpointAvgF,DewpointLowF,HumidityHigh,HumidityAvg,HumidityLow,PressureMaxIn,PressureMinIn,WindSpeedMaxMPH,WindSpeedAvgMPH,GustSpeedMaxMPH,PrecipitationSumIn
2013-1-1,78.2,66.1,56.0,61.0,58.0,54.0,94,77,54,30.23,30.04,11,1,0,0.00
2013-1-2,79.8,69.6,60.2,67.0,62.6,57.0,92,79,61,30.07,29.98,8,2,0,0.00
2013-1-3,74.1,65.8,58.8,67.0,62.9,56.0,97,90,75,30.18,30.03,8,2,0,0.09
2013-1-4,59.5,57.4,54.9,58.0,56.4,54.0,97,96,95,30.28,30.15,9,3,0,0.28
2013-1-5,74.3,62.8,54.3,64.0,57.4,52.0,96,83,68,30.31,30.19,13,3,0,0.00
2013-1-6,79.2,68.5,61.1,68.0,63.8,59.0,97,86,68,30.21,30.06,8,2,0,0.18
2013-1-7,68.3,62.9,56.6,62.0,58.4,52.0,95,85,69,30.23,30.13,13,4,0,0.01
2013-1-8,80.4,71.3,63.4,70.0,67.0,62.0,96,87,66,30.23,30.13,10,2,0,0.00
2013-1-9,80.0,72.8,67.4,73.0,69.7,67.0,98,90,76,30.31,30.20,8,2,0,0.04
2013-1-10,79.9,72.3,67.2,70.0,67.0,64.0,98,84,59,30.32,30.23,12,3,0,0.02
2013-1-11,81.6,72.0,64.3,70.0,66.0,63.0,97,82,57,30.27,30.16,8,2,0,0.00
2013-1-12,81.8,71.8,64.3,69.0,64.9,62.0,97,80,52,30.20,30.09,6,2,0,0.01
2013-1-13,81.2,71.3,62.3,68.0,64.4,61.0,98,81,53,30.17,30.07,7,2,0,0.01
2013-1-14,80.7,71.2,63.0,67.0,64.9,62.0,97,82,59,30.20,30.12,8,2,0,0.00
2013-1-15,81.3,72.1,65.1,68.0,65.7,64.0,96,81,57,30.16,30.06,9,2,0,0.00
2013-1-16,82.2,72.1,64.0,67.0,63.2,60.0,94,76,50,30.11,30.00,8,1,0,0.01
2013-1-17,79.4,65.3,53.9,69.0,59.4,45.0,96,81,64,30.11,29.96,14,4,0,0.01
2013-1-18,65.2,54.9,42.1,59.0,47.8,36.0,93,77,71,30.29,30.11,14,4,0,0.06
2013-1-19,73.2,64.1,56.4,62.0,57.5,52.0,88,79,65,30.29,30.14,13,4,0,0.00
2013-1-20,71.9,63.9,59.7,64.0,59.1,55.0,96,85,70,30.19,30.05,8,3,0,0.03
2013-1-21,75.2,66.4,62.6,62.0,58.1,56.0,84,75,63,30.11,30.00,6,2,0,0.00
2013-1-22,62.9,58.7,50.6,56.0,44.9,37.0,81,61,43,30.28,30.06,11,3,0,0.00
2013-1-23,67.2,56.6,47.8,46.0,39.7,34.0,82,56,30,30.37,30.27,9,2,0,0.00
2013-1-24,73.4,61.1,48.1,54.0,47.9,43.0,88,64,41,30.33,30.22,7,1,0,0.00
2013-1-25,76.2,64.6,55.0,58.0,52.5,47.0,94,68,43,30.31,30.17,8,1,0,0.00
2013-1-26,76.1,64.1,53.9,57.0,54.2,48.0,92,72,48,30.27,30.16,8,1,0,0.00
2013-1-27,78.0,66.3,55.9,64.0,59.2,54.0,96,80,53,30.32,30.23,9,2,0,0.01
2013-1-28,76.5,70.0,63.8,65.0,63.8,62.0,93,81,65,30.34,30.25,13,3,0,0.00
2013-1-29,82.7,71.9,64.3,69.0,65.9,64.0,98,83,53,30.26,30.11,11,3,0,0.01
2013-1-30,83.0,73.9,65.6,67.0,65.3,63.0,94,76,54,30.12,29.89,16,6,0,0.01
2013-1-31,72.1,59.7,51.4,67.0,42.4,28.0,92,57,28,30.23,29.89,11,3,0,0.10
2013-2-1,70.0,56.3,46.0,37.0,31.7,26.0,63,42,21,30.36,30.23,8,2,0,0.00
2013-2-2,73.1,59.0,46.5,48.0,40.6,36.0,74,53,30,30.32,30.14,8,2,0,0.00
2013-2-3,70.3,59.0,47.9,52.0,43.7,35.0,84,59,40,30.19,30.06,11,2,0,0.00
2013-2-4,70.6,58.2,45.7,47.0,41.4,34.0,92,58,29,30.15,30.04,8,2,0,0.00
2013-2-5,77.0,62.5,46.8,54.0,48.7,42.0,94,64,40,30.11,30.00,7,1,0,0.00
2013-2-6,78.5,68.5,59.6,65.0,59.1,54.0,86,73,52,30.12,30.03,7,1,0,0.00
2013-2-7,79.7,73.0,66.8,65.0,62.6,59.0,85,71,54,30.08,29.87,12,4,0,0.00
2013-2-8,80.3,70.9,62.0,66.0,60.3,56.0,89,71,47,30.08,29.87,11,4,0,0.00
2013-2-9,72.8,63.5,55.6,58.0,55.6,53.0,91,76,55,30.21,30.07,13,4,0,0.00
2013-2-10,76.7,66.7,58.0,60.0,57.3,54.0,87,73,52,30.28,30.18,12,4,0,0.00
2013-2-11,81.5,71.2,60.7,65.0,61.5,58.0,93,73,50,30.22,30.07,11,3,0,0.00
2013-2-12,84.6,74.3,64.2,69.0,64.9,63.0,95,74,48,30.11,29.93,15,4,0,0.00
2013-2-13,86.8,74.2,64.4,70.0,67.1,58.0,92,80,53,29.97,29.81,14,6,0,0.43
2013-2-14,66.6,63.2,57.2,62.0,59.1,56.0,96,87,74,30.04,29.91,8,2,0,0.25
2013-2-15,70.1,59.3,52.8,58.0,54.1,52.0,96,84,59,30.08,29.96,9,3,0,0.04
2013-2-16,67.7,58.6,50.0,54.0,44.1,26.0,88,62,29,30.12,29.90,16,4,0,0.00
2013-2-17,53.1,46.0,39.1,30.0,19.4,10.0,66,37,18,30.35,30.13,12,3,0,0.00
2013-2-18,66.2,53.0,37.7,48.0,38.1,25.0,82,59,38,30.38,30.22,15,3,0,0.00
2013-2-19,79.5,65.4,49.5,59.0,52.9,46.0,90,66,41,30.23,30.06,19,3,0,0.00
2013-2-20,76.4,65.8,60.3,61.0,57.1,53.0,90,74,57,30.14,30.01,9,3,0,0.00
2013-2-21,82.2,70.1,59.7,66.0,59.9,52.0,89,71,50,30.12,30.00,9,3,0,0.00
2013-2-22,86.1,74.1,64.8,71.0,66.7,61.0,96,80,45,30.09,29.99,13,3,0,0.00
2013-2-23,87.7,77.2,70.7,70.0,68.0,65.0,92,75,49,30.02,29.87,12,5,0,0.00
2013-2-24,75.3,70.6,65.9,71.0,68.0,64.0,94,91,84,29.97,29.87,9,2,0,0.51
2013-2-25,86.3,72.8,65.0,72.0,66.6,62.0,97,83,46,29.93,29.76,10,2,0,0.30
2013-2-26,77.9,72.1,66.7,72.0,68.0,61.0,95,87,73,29.86,29.74,16,5,0,0.06
2013-2-27,76.1,66.8,58.2,63.0,56.7,50.0,91,72,50,29.97,29.87,9,3,0,0.00
2013-2-28,74.3,62.9,54.4,53.0,49.9,43.0,87,65,34,30.00,29.87,13,4,0,0.00
2013-3-1,65.0,56.9,51.4,49.0,40.4,32.0,78,56,32,30.01,29.91,9,3,0,0.00
2013-3-2,59.2,52.2,44.8,38.0,33.9,28.0,63,51,30,30.03,29.95,15,4,0,0.00
2013-3-3,53.2,45.8,39.6,33.0,31.6,29.0,70,59,45,30.16,30.00,16,3,0,0.00
2013-3-4,65.3,51.4,38.4,39.0,31.1,24.0,83,51,24,30.24,30.12,7,1,0,0.00
2013-3-5,77.0,62.4,47.0,59.0,44.6,39.0,86,57,28,30.18,30.01,12,4,0,0.00
2013-3-6,67.9,60.2,50.8,62.0,40.8,28.0,92,53,25,30.13,29.93,12,4,0,0.00
2013-3-7,67.9,54.3,43.0,48.0,39.4,32.0,83,59,39,30.22,30.12,9,2,0,0.00
2013-3-8,73.6,59.3,46.4,49.0,43.9,30.0,91,62,20,30.23,30.12,8,2,0,0.00
2013-3-9,73.5,62.2,52.2,54.0,50.1,47.0,83,66,41,30.24,30.14,10,3,0,0.00
2013-3-10,75.7,65.9,57.3,58.0,55.0,53.0,87,70,46,30.19,30.09,11,4,0,0.00
2013-3-11,76.9,67.7,57.3,62.0,57.9,54.0,90,72,52,30.13,29.92,14,4,0,0.00
2013-3-12,71.6,66.8,59.0,68.0,62.6,56.0,95,86,76,30.03,29.87,11,5,0,0.20
2013-3-13,74.5,62.3,53.3,57.0,42.1,30.0,92,53,20,30.17,30.02,12,3,0,0.00
2013-3-14,66.8,56.4,49.2,44.0,35.2,27.0,69,47,24,30.27,30.15,10,3,0,0.00
2013-3-15,72.9,58.2,44.2,46.0,39.4,31.0,90,55,27,30.30,30.14,10,2,0,0.00
2013-3-16,80.2,64.7,50.1,49.0,44.8,41.0,89,54,27,30.19,30.04,9,2,0,0.00
2013-3-17,77.1,66.2,53.1,60.0,52.4,44.0,90,63,45,30.15,30.00,10,2,0,0.00
2013-3-18,79.1,72.1,65.1,66.0,62.9,59.0,85,73,60,30.07,29.92,9,4,0,0.00
2013-3-19,87.5,74.2,65.1,66.0,62.1,58.0,94,69,38,30.03,29.88,9,2,0,0.00
2013-3-20,76.4,69.0,61.1,67.0,63.0,58.0,94,82,67,29.98,29.79,7,2,0,0.44
2013-3-21,70.6,60.8,52.5,58.0,42.4,29.0,92,57,24,29.97,29.87,9,2,0,0.01
2013-3-22,77.9,62.3,50.0,62.0,50.8,43.0,94,69,37,30.03,29.90,10,2,0,0.17
2013-3-23,85.9,73.3,63.4,73.0,66.9,62.0,97,82,57,30.00,29.77,13,3,0,0.04
2013-3-24,81.7,73.0,65.4,74.0,68.9,63.0,95,87,71,29.86,29.62,19,5,0,1.00
2013-3-25,71.9,65.1,56.7,67.0,46.6,30.0,92,56,22,30.03,29.72,8,4,0,0.00
2013-3-26,60.1,53.6,47.8,42.0,29.3,20.0,61,41,21,30.23,30.02,11,4,0,0.00
2013-3-27,63.2,51.9,42.5,42.0,31.8,28.0,73,49,28,30.31,30.20,8,3,0,0.00
2013-3-28,70.8,56.7,45.5,45.0,37.9,29.0,82,55,22,30.30,30.18,8,2,0,0.00
2013-3-29,73.4,62.9,49.9,47.0,40.2,33.0,85,48,24,30.34,30.20,8,2,0,0.00
2013-3-30,77.9,65.2,50.2,54.0,49.6,44.0,90,60,33,30.27,30.12,11,2,0,0.00
2013-3-31,81.7,71.6,62.9,58.0,54.2,51.0,76,56,37,30.18,30.00,15,4,0,0.00
2013-4-1,84.9,74.2,65.8,66.0,62.2,58.0,86,68,46,30.04,29.93,12,3,0,0.00
2013-4-2,82.9,72.3,64.5,65.0,59.3,52.0,93,67,39,30.09,30.00,8,3,0,0.00
2013-4-3,83.4,72.3,64.2,68.0,63.8,60.0,95,76,51,30.09,29.97,14,4,0,0.69
2013-4-4,75.0,71.1,68.0,70.0,67.2,63.0,96,88,76,30.03,29.86,16,4,0,0.14
2013-4-5,77.3,68.4,58.7,67.0,62.8,56.0,92,82,57,30.00,29.81,12,4,0,0.03
2013-4-6,75.6,64.9,55.9,60.0,56.6,52.0,93,76,56,30.15,30.00,14,5,0,0.01
2013-4-7,79.1,70.1,60.1,62.0,59.9,57.0,95,72,49,30.17,30.07,9,3,0,0.00
2013-4-8,83.5,72.1,62.3,65.0,61.3,59.0,94,71,47,30.15,30.06,12,2,0,0.00
2013-4-9,82.3,73.2,64.9,68.0,62.8,57.0,95,72,50,30.18,30.08,16,3,0,0.00
2013-4-10,86.3,74.4,64.1,70.0,65.5,62.0,94,76,46,30.14,29.99,12,3,0,0.00
2013-4-11,87.8,78.5,71.9,73.0,70.9,69.0,94,79,55,30.01,29.83,13,5,0,0.05
2013-4-12,85.0,78.7,74.3,74.0,71.8,69.0,92,80,63,29.91,29.82,14,6,0,0.00
2013-4-13,87.0,77.1,69.9,71.0,67.1,60.0,91,72,47,29.99,29.88,9,2,0,0.00
2013-4-14,88.5,75.4,67.9,74.0,68.5,63.0,96,80,57,30.00,29.82,8,3,0,0.35
2013-4-15,89.2,76.2,66.4,68.0,64.7,63.0,93,70,46,30.08,29.91,7,2,0,0.12
2013-4-16,84.8,76.4,69.5,72.0,68.6,64.0,95,78,59,30.16,30.05,10,4,0,0.02
2013-4-17,82.4,74.3,67.8,70.0,67.2,64.0,97,80,57,30.16,30.05,16,4,0,0.00
2013-4-18,87.3,77.2,68.4,72.0,68.0,65.0,95,75,50,30.07,29.96,9,3,0,0.00
2013-4-19,90.3,78.9,73.5,75.0,71.6,68.0,93,79,50,30.02,29.90,14,5,0,0.56
2013-4-20,76.4,68.6,60.9,71.0,63.6,57.0,91,84,75,30.16,29.96,14,4,0,0.00
2013-4-21,76.8,68.8,61.4,72.0,66.0,57.0,97,91,80,30.14,30.02,10,3,0,1.62
2013-4-22,78.5,69.8,65.7,69.0,66.9,64.0,97,91,69,30.08,30.00,13,4,0,0.07
2013-4-23,79.4,70.5,63.8,66.0,62.5,59.0,96,77,50,30.13,30.02,16,5,0,0.00
2013-4-24,84.7,72.0,60.9,64.0,61.7,60.0,95,73,44,30.15,30.06,10,2,0,0.00
2013-4-25,87.9,75.3,64.6,66.0,63.0,57.0,94,68,37,30.21,30.10,8,1,0,0.00
2013-4-26,85.4,76.0,67.1,68.0,65.5,62.0,92,71,48,30.25,30.15,8,3,0,0.00
2013-4-27,82.4,74.7,68.2,69.0,66.1,62.0,94,76,53,30.23,30.11,11,3,0,0.00
2013-4-28,81.2,73.7,66.7,67.0,65.5,63.0,94,77,56,30.14,30.00,11,3,0,0.00
2013-4-29,85.6,75.4,68.3,72.0,65.6,60.0,95,74,42,30.03,29.90,8,3,0,1.18
2013-4-30,88.2,74.4,67.6,71.0,67.5,62.0,97,82,45,30.02,29.91,9,2,0,0.83
2013-5-1,77.3,71.6,68.9,73.0,69.5,66.0,97,93,76,30.02,29.95,9,2,0,0.35
2013-5-2,74.4,70.0,66.5,71.0,68.7,66.0,97,95,87,29.97,29.83,8,2,0,2.25
2013-5-3,79.7,72.0,68.1,71.0,68.3,67.0,98,89,70,29.84,29.68,18,5,0,0.11
2013-5-4,83.8,74.7,68.5,71.0,68.5,67.0,96,82,60,29.79,29.66,8,2,0,0.02
2013-5-5,78.9,70.7,62.1,68.0,53.9,44.0,92,59,32,29.94,29.75,18,4,0,0.01
2013-5-6,79.2,70.2,63.5,61.0,56.1,51.0,83,63,41,30.01,29.89,15,4,0,0.00
2013-5-7,79.5,69.4,58.8,61.0,56.6,54.0,88,65,47,30.06,29.95,11,3,0,0.00
2013-5-8,83.2,73.2,64.2,63.0,60.3,57.0,90,66,44,30.14,30.03,10,2,0,0.00
2013-5-9,86.4,75.1,65.3,66.0,61.9,55.0,89,66,35,30.15,30.07,7,2,0,0.00
2013-5-10,91.1,77.9,67.3,72.0,68.4,65.0,94,75,45,30.14,29.99,12,3,0,0.00
2013-5-11,92.1,78.7,71.3,73.0,69.6,65.0,92,75,49,30.06,29.96,15,3,0,0.00
2013-5-12,90.1,79.7,70.9,73.0,67.9,65.0,93,69,47,30.03,29.93,9,3,0,0.00
2013-5-13,83.6,74.7,68.1,68.0,60.6,51.0,87,64,36,30.13,29.99,9,3,0,0.00
2013-5-14,82.5,72.1,62.4,58.0,54.2,46.0,80,57,28,30.21,30.12,12,3,0,0.00
2013-5-15,84.1,73.8,62.6,63.0,58.8,54.0,92,62,40,30.22,30.10,9,2,0,0.00
2013-5-16,86.1,75.3,66.0,65.0,62.8,59.0,88,67,40,30.14,30.02,9,3,0,0.00
2013-5-17,87.0,76.6,67.0,69.0,65.5,62.0,90,70,46,30.11,30.03,9,2,0,0.00
2013-5-18,90.3,79.1,69.9,72.0,68.9,61.0,94,73,39,30.12,30.01,10,2,0,0.00
2013-5-19,89.4,76.7,69.9,73.0,71.3,67.0,96,84,54,30.09,30.00,11,2,0,2.75
2013-5-20,88.1,76.2,71.1,74.0,70.7,67.0,96,85,51,30.09,29.99,9,1,0,1.18
2013-5-21,82.1,73.5,70.0,73.0,70.7,69.0,97,91,70,30.04,29.95,5,1,0,0.18
2013-5-22,87.9,75.7,69.7,73.0,71.0,69.0,98,86,55,29.98,29.92,7,1,0,1.24
2013-5-23,91.4,78.8,71.2,74.0,70.9,68.0,97,79,49,30.00,29.91,8,2,0,0.03
2013-5-24,94.8,82.1,72.6,75.0,68.2,61.0,94,67,32,30.09,29.96,8,2,0,0.00
2013-5-25,83.9,77.4,71.1,70.0,64.9,60.0,90,67,48,30.20,30.07,11,4,0,0.00
2013-5-26,84.4,74.4,66.0,63.0,60.4,57.0,81,63,40,30.22,30.14,10,3,0,0.00
2013-5-27,84.6,75.9,68.1,66.0,63.8,61.0,87,68,45,30.18,30.11,11,3,0,0.00
2013-5-28,86.2,77.7,69.9,72.0,69.2,66.0,90,76,59,30.15,30.07,12,5,0,0.00
2013-5-29,84.7,77.2,72.7,74.0,72.1,70.0,94,84,64,30.15,30.06,12,4,0,0.26
2013-5-30,84.9,78.1,72.1,75.0,71.6,68.0,96,81,57,30.12,30.05,14,5,0,0.27
2013-5-31,84.6,78.3,72.4,75.0,71.2,69.0,93,79,63,30.11,30.04,14,5,0,0.02
2013-6-1,86.0,79.1,73.5,76.0,73.3,71.0,93,83,68,30.07,29.97,12,4,0,0.00
2013-6-2,93.3,80.1,74.7,77.0,74.3,72.0,97,84,52,30.01,29.88,15,3,0,0.49
2013-6-3,88.9,80.1,75.4,76.0,74.3,73.0,96,83,60,30.00,29.88,11,2,0,0.30
2013-6-4,86.9,78.1,73.0,74.0,72.5,71.0,94,83,62,30.04,29.93,11,2,0,0.08
2013-6-5,85.7,75.7,73.1,76.0,73.0,71.0,97,91,66,30.02,29.92,10,1,0,0.41
2013-6-6,79.3,75.6,73.1,77.0,73.4,70.0,97,93,76,29.92,29.66,21,6,0,2.26
2013-6-7,88.9,80.8,74.9,75.0,73.3,71.0,92,78,61,29.95,29.76,12,5,0,0.00
2013-6-8,88.9,78.2,71.1,75.0,73.1,69.0,96,85,63,30.10,29.95,10,2,0,1.46
2013-6-9,89.7,79.6,71.3,76.0,73.4,70.0,97,82,60,30.11,30.03,8,2,0,0.01
2013-6-10,93.5,80.5,74.6,76.0,74.3,71.0,95,83,52,30.10,30.01,11,2,0,1.19
2013-6-11,90.4,78.8,73.5,78.0,74.6,71.0,97,88,60,30.09,30.01,6,1,0,0.37
2013-6-12,95.5,82.7,72.3,76.0,72.9,70.0,97,75,44,30.09,29.99,13,2,0,0.01
2013-6-13,95.0,84.7,76.4,77.0,73.7,72.0,88,71,47,30.03,29.89,8,2,0,0.00
2013-6-14,92.5,84.5,77.2,75.0,73.0,69.0,89,70,47,29.93,29.84,9,3,0,0.00
2013-6-15,89.4,82.1,77.9,78.0,75.0,72.0,92,79,67,30.07,29.90,12,3,0,0.02
2013-6-16,88.4,81.8,78.3,78.0,75.3,73.0,89,81,66,30.09,30.03,11,3,0,0.00
2013-6-17,89.6,81.1,75.5,80.0,76.4,73.0,96,86,65,30.09,29.97,9,2,0,1.42
2013-6-18,92.8,81.5,72.8,77.0,74.4,72.0,96,81,54,30.08,29.94,10,2,0,0.69
2013-6-19,93.5,83.3,75.5,76.0,74.4,72.0,95,76,51,30.04,29.95,9,3,0,0.01
2013-6-20,94.0,81.1,73.5,77.0,73.7,72.0,95,79,50,30.11,30.00,13,2,0,0.50
2013-6-21,91.5,77.9,73.3,75.0,72.8,71.0,97,86,52,30.12,30.04,15,1,0,0.08
2013-6-22,91.3,80.7,73.1,76.0,72.5,66.0,96,78,45,30.12,30.05,7,2,0,0.01
2013-6-23,90.0,79.8,74.7,76.0,74.3,72.0,94,84,59,30.15,30.07,13,2,0,0.67
2013-6-24,90.1,82.2,75.1,76.0,74.0,72.0,95,77,57,30.19,30.09,10,2,0,0.00
2013-6-25,90.3,82.2,75.0,75.0,73.6,71.0,95,76,55,30.16,30.04,7,2,0,0.00
2013-6-26,93.3,81.2,76.6,77.0,73.9,70.0,94,79,52,30.08,30.01,14,3,0,0.00
2013-6-27,95.8,82.7,74.2,76.0,73.2,71.0,94,74,47,30.04,29.93,9,2,0,0.00
2013-6-28,91.7,80.9,75.6,77.0,74.2,69.0,93,81,56,29.97,29.85,14,3,0,0.28
2013-6-29,89.9,81.5,76.2,77.0,74.6,71.0,93,80,61,29.88,29.80,11,5,0,0.05
2013-6-30,89.9,78.2,74.8,77.0,74.3,71.0,95,88,62,29.89,29.81,12,4,0,0.67
2013-7-1,85.0,76.8,74.3,76.0,73.2,71.0,95,88,71,30.03,29.86,15,5,0,0.36
2013-7-2,83.8,76.8,73.7,77.0,74.0,72.0,97,91,79,30.10,29.98,10,2,0,0.15
2013-7-3,88.6,77.4,73.0,78.0,74.5,71.0,97,91,67,30.14,30.06,9,2,0,0.50
2013-7-4,75.6,73.8,73.5,75.0,73.1,72.0,98,97,96,30.14,30.08,2,0,0,0.01
2013-12-5,-200.0,0.0,200.0,-99.9,-99.9,-99.9,0,0,100,0.00,40.00,0,-999,0,0.00
2013-12-6,-200.0,0.0,200.0,-99.9,-99.9,-99.9,0,0,100,0.00,40.00,0,-999,0,0.00
2013-12-7,-200.0,0.0,200.0,-99.9,-99.9,-99.9,0,0,100,0.00,40.00,0,-999,0,0.00
2013-12-8,-200.0,0.0,200.0,-99.9,-99.9,-99.9,0,0,100,0.00,40.00,0,-999,0,0.00
2013-12-9,84.0,27.0,71.0,67.0,-41.0,-99.9,84,26,57,30.14,0.00,6,-645,0,0.00
2013-12-10,85.3,75.2,66.5,71.0,66.2,63.0,94,75,50,30.19,30.06,11,3,0,0.00
2013-12-11,82.9,70.1,60.5,69.0,62.8,56.0,88,78,59,30.25,30.15,8,3,0,0.00
2013-12-12,68.6,61.9,55.1,62.0,49.9,33.0,94,68,32,30.32,30.20,10,5,0,0.00
2013-12-13,73.7,62.1,52.1,58.0,53.0,46.0,87,73,53,30.27,30.13,9,3,0,0.00
2013-12-14,81.5,72.4,62.8,72.0,66.4,58.0,90,82,67,30.13,29.93,13,3,0,0.04
2013-12-15,73.6,68.3,59.6,71.0,63.2,55.0,94,84,70,30.12,29.86,9,3,0,0.10
2013-12-16,64.3,56.1,48.5,55.0,48.1,44.0,87,75,53,30.24,30.11,9,3,0,0.00
2013-12-17,71.1,59.0,48.9,55.0,49.8,44.0,86,73,56,30.25,30.15,8,2,0,0.00
2013-12-18,69.3,58.4,50.5,51.0,45.5,41.0,91,64,42,30.29,30.20,11,2,0,0.00
2013-12-19,75.3,62.1,51.2,59.0,52.8,45.0,87,73,49,30.29,30.18,6,2,0,0.00
2013-12-20,82.8,68.9,56.8,64.0,60.1,55.0,93,75,51,30.21,30.11,10,2,0,0.00
2013-12-21,84.3,74.2,65.9,73.0,68.6,64.0,96,84,61,30.16,30.04,11,3,0,0.00
2013-12-22,84.2,75.6,68.9,73.0,69.5,68.0,97,82,62,30.14,30.07,15,4,0,0.01
2013-12-23,86.0,76.3,68.9,73.0,69.8,67.0,97,82,56,30.17,30.07,15,3,0,0.00
2013-12-24,74.1,64.0,53.6,71.0,53.9,29.0,94,72,28,30.27,30.09,13,5,0,0.01
2013-12-25,74.4,60.4,49.0,58.0,50.7,41.0,92,71,50,30.26,30.16,12,4,0,0.00
2013-12-26,76.6,63.4,57.1,64.0,59.2,56.0,97,87,65,30.23,30.10,11,4,0,0.00
2013-12-27,69.9,64.7,59.5,65.0,61.9,58.0,95,90,84,30.26,30.17,10,4,0,0.00
2013-12-28,75.9,70.5,65.2,71.0,68.0,64.0,97,92,80,30.22,30.02,14,3,0,0.09
2013-12-29,77.9,72.6,65.9,73.0,70.1,65.0,96,92,80,30.01,29.88,10,3,0,0.38
2013-12-30,70.2,62.9,58.8,65.0,58.1,51.0,96,85,61,30.20,29.99,8,2,0,0.00
2013-12-31,68.0,62.0,58.7,55.0,52.6,48.0,85,72,51,30.30,30.17,9,3,0,0.00
2014-1-1,64.7,61.8,59.0,63.0,59.8,55.0,97,93,83,30.25,30.07,11,4,0,0.05
2014-1-2,80.8,68.9,60.3,73.0,66.7,55.0,98,93,73,30.06,29.81,13,4,0,0.43